User: anonymous   Login
Location: Bonn
(50.7330°N, 7.1000°E)
Time: 21:56:46
(UTC+01:00)
Language:

Cosmos 1933 Rocket - Orbit

View from above orbital plane
View from above orbital plane
View from above satellite
View from above satellite

Ground track
Ground track

The orbit data is extracted from the following two-line orbital elements,

1 18959U 88020B   18020.50505716  .00000066  00000-0  51393-5 0  9998
2 18959  82.5364  67.7562 0017965 136.7622 223.5007 14.83367803612797
Epoch (UTC): 20 January 2018 12:07:16
Eccentricity: 0.0017965
inclination: 82.5364°
perigee height: 606 km
apogee height: 631 km
right ascension of ascending node: 67.7562°
argument of perigee: 136.7622°
revolutions per day: 14.83367803
mean anomaly at epoch: 223.5007°
orbit number at epoch: 61279

The dashed part of the orbit path shows where the satellite is in the earth's shadow,  

DLR